Louisville Bowman, KY

12:31 AM EDT on May 21, 2018 (GMT -0400)
Bowman

Weather History for KLOU - January, 2010

Change the Weather History Date:

Thursday, January 14, 2010

  Actual Average Record
Temperature  
Mean Temperature 37 °F 34 °F  
Max Temperature 51 °F 42 °F 67 °F (1952)
Min Temperature 22 °F 26 °F -1 °F (1964)
Degree Days  
Heating Degree Days 28 31  
Month to date heating degree days 595 428  
Since 1 July heating degree days 2234 2092  
Cooling Degree Days 0 0  
Month to date cooling degree days 0 0  
Year to date cooling degree days 0 0  
Moisture  
Dew Point 23 °F    
Average Humidity 64    
Maximum Humidity 88    
Minimum Humidity 39    
Precipitation  
Precipitation 0.00 in 0.12 in 2.56 in (1951)
Month to date precipitation 0.13 1.70  
Year to date precipitation 0.13 1.70  
Sea Level Pressure  
Sea Level Pressure 30.24 in    
Wind  
Wind Speed 3 mph (South)    
Max Wind Speed 10 mph    
Max Gust Speed 14 mph    
Visibility 9 miles    
Events      
T = Trace of Precipitation, MM = Missing Value Source: NWS Daily Summary

Daily Weather History Graph

Daily Weather History Graph

Search for Another Location

Airport or City:

Astronomy

Jan. 14, 2010 Rise Set
Actual Time 7:58 AM EST 5:45 PM EST
Civil Twilight 7:29 AM EST 6:14 PM EST
Nautical Twilight 6:56 AM EST 6:46 PM EST
Astronomical Twilight 6:25 AM EST 7:18 PM EST
Moon 7:34 AM EST (1/14) 5:20 PM EST (1/14)
Length of Visible Light 10h 45m
Length of Day
9h 47m
Waning Crescent, 0% of the Moon is Illuminated
Jan 14
Waning Crescent
Jan 15
New
Jan 23
First Quarter
Jan 30
Full
Feb 5
Last Quarter

Hourly Weather History & Observations

Time (EST) Temp. Windchill Dew Point Humidity Pressure Visibility Wind Dir Wind Speed Gust Speed Precip Events Conditions
12:53 AM 28.9 °F 25.2 °F 21.9 °F 75% 30.27 in 8.0 mi SSE 3.5 mph - N/A   Clear
1:53 AM 28.0 °F - 21.9 °F 78% 30.26 in 8.0 mi Calm Calm - N/A   Clear
2:53 AM 26.1 °F - 21.0 °F 81% 30.26 in 8.0 mi Calm Calm - N/A   Clear
3:53 AM 24.1 °F - 19.9 °F 84% 30.26 in 6.0 mi Calm Calm - N/A   Clear
4:53 AM 24.1 °F - 19.9 °F 84% 30.25 in 6.0 mi Calm Calm - N/A   Clear
5:53 AM 24.1 °F - 19.9 °F 84% 30.25 in 6.0 mi Calm Calm - N/A   Clear
6:53 AM 23.0 °F - 19.0 °F 85% 30.26 in 7.0 mi Calm Calm - N/A   Clear
7:53 AM 27.0 °F - 21.0 °F 78% 30.27 in 8.0 mi Calm Calm - N/A   Clear
8:53 AM 28.9 °F 23.9 °F 21.9 °F 75% 30.28 in 7.0 mi SSE 4.6 mph - N/A   Clear
9:53 AM 32.0 °F 25.6 °F 23.0 °F 69% 30.28 in 8.0 mi South 6.9 mph - N/A   Clear
10:53 AM 36.0 °F 30.3 °F 24.1 °F 62% 30.30 in 8.0 mi South 6.9 mph - N/A   Clear
11:53 AM 39.0 °F 35.7 °F 25.0 °F 57% 30.27 in 9.0 mi SSE 4.6 mph - N/A   Clear
12:53 PM 43.0 °F 40.3 °F 26.1 °F 51% 30.24 in 10.0 mi SSE 4.6 mph - N/A   Clear
1:53 PM 48.0 °F - 26.1 °F 42% 30.22 in 10.0 mi SSW 6.9 mph - N/A   Clear
2:53 PM 50.0 °F - 26.1 °F 39% 30.20 in 10.0 mi South 5.8 mph - N/A   Partly Cloudy
3:53 PM 48.9 °F - 26.1 °F 41% 30.20 in 10.0 mi SSE 5.8 mph - N/A   Partly Cloudy
4:53 PM 48.9 °F - 26.1 °F 41% 30.20 in 10.0 mi South 9.2 mph - N/A   Clear
5:53 PM 46.9 °F - 25.0 °F 42% 30.20 in 10.0 mi Calm Calm - N/A   Clear
6:53 PM 46.0 °F 43.9 °F 25.0 °F 44% 30.22 in 10.0 mi South 4.6 mph - N/A   Clear
7:53 PM 44.1 °F - 25.0 °F 47% 30.22 in 10.0 mi Calm Calm - N/A   Clear
8:53 PM 44.1 °F 41.5 °F 25.0 °F 47% 30.22 in 10.0 mi South 4.6 mph - N/A   Overcast
9:53 PM 43.0 °F 40.3 °F 25.0 °F 49% 30.24 in 10.0 mi South 4.6 mph - N/A   Overcast
10:53 PM 43.0 °F - 25.0 °F 49% 30.24 in 10.0 mi Calm Calm - N/A   Overcast
11:53 PM 43.0 °F - 25.0 °F 49% 30.24 in 10.0 mi Calm Calm - N/A   Overcast